MIYAZAKI_AIRPORT current weather conditions

sailwx.info

Wind from 290 at 6 knots

Air temperature 4.0° C
Visibility: greater than 5.4 NM
Dewpoint -4.0° C

Last reported at 2017-Jan-16 12:00 UTC.
Time now 2017-Jan-16 17:19 UTC

Location: N 31°52' E 131°27'.
View on Google Maps.

See reports from other nearby stations

  
Tides and Currents Weather Stations Pressure Air Temp Water Temp Dewpoint Dewpoint Depression Visibility Wind Speed Wind Dir Waves Ship Positions
date/time (UTC)wind fromknots sea level pressurealtimeterstation pressurevisibilityair tempwater tempwave heightnotes
2017-Jan-16 12:00 290 6 5.4 4.0
2017-Jan-16 11:00 280 6 5.4 5.0
2017-Jan-16 10:00 270 6 5.4 6.0
2017-Jan-16 09:00 240 6 5.4 8.0
2017-Jan-16 08:00 250 8 5.410.0
2017-Jan-16 07:00 220 6 5.411.0
2017-Jan-16 06:00 5.411.0
2017-Jan-16 05:00 100 6 5.411.0
2017-Jan-16 04:00 070 5 5.410.0
2017-Jan-16 03:00 320 4 5.4 9.0
2017-Jan-16 02:00 330 7 5.4 8.0
2017-Jan-16 01:00 270 7 5.4 7.0
2017-Jan-16 00:00 280 6 5.4 4.0
2017-Jan-15 23:00 290 7 5.4 1.0
2017-Jan-15 22:00 320 5 5.4-0.0
2017-Jan-15 21:10 5.4-0.0
2017-Jan-15 12:00 260 11 5.4 2.0
2017-Jan-15 11:00 260 11 5.4 3.0
2017-Jan-15 10:00 250 9 5.4 4.0
2017-Jan-15 09:00 250 8 5.4 5.0
2017-Jan-15 08:00 250 9 5.4 7.0
2017-Jan-15 07:00 220 11 5.4 9.0
2017-Jan-15 06:00 220 9 5.4 9.0
2017-Jan-15 05:00 080 4 5.4 8.0
2017-Jan-15 04:00 250 7 5.4 7.0
2017-Jan-15 03:00 5.4 6.0
2017-Jan-15 02:00 240 6 5.4 6.0
2017-Jan-15 01:00 280 8 5.4 4.0
2017-Jan-15 00:00 290 9 5.4 3.0
2017-Jan-14 23:00 280 8 5.4 2.0
2017-Jan-14 22:00 290 11 5.4 1.0
2017-Jan-14 21:10 270 12 5.4 2.0